Location: Koszewko
(53.2876°N, 14.9061°E)
Time: 22:14:50
(UTC+00:00)

SL-16 R/B - Pass Details

Date: 03 March 2021
Orbit: 986 x 1006 km, 99.5° (Epoch: 12 April)

Event Time Altitude Azimuth Distance (km) Brightness Sun altitude
Exits shadow 23:11:41 24° 17° (NNE) 1,936 4.4 -43.2°
Drops below altitude 10° 23:14:35 10° 356° (N) 2,764 5.5 -43.2°
Sets 23:17:18 0° 347° (NNW) 3,719 6.3 -43.1°
